����������;��������(kWh)
2017-05-29 00:00;80,6
2017-05-29 00:15;81,3
2017-05-29 00:30;80,4
2017-05-29 00:45;86
2017-05-29 01:00;89,55
2017-05-29 01:15;82,4
2017-05-29 01:30;81,95
2017-05-29 01:45;84,8
2017-05-29 02:00;85,7
2017-05-29 02:15;82,85
2017-05-29 02:30;83,9
2017-05-29 02:45;83,75
2017-05-29 03:00;84,1
2017-05-29 03:15;82,55
2017-05-29 03:30;84,5
2017-05-29 03:45;84,1
2017-05-29 04:00;83,25
2017-05-29 04:15;82,4
2017-05-29 04:30;82,7
2017-05-29 04:45;83,7
2017-05-29 05:00;85,25
2017-05-29 05:15;90,45
2017-05-29 05:30;93
2017-05-29 05:45;92,5
2017-05-29 06:00;91,4
2017-05-29 06:15;88,25
2017-05-29 06:30;86,95
2017-05-29 06:45;82,05
2017-05-29 07:00;81,8
2017-05-29 07:15;82,1
2017-05-29 07:30;85,6
2017-05-29 07:45;90,6
2017-05-29 08:00;88,95
2017-05-29 08:15;91,05
2017-05-29 08:30;100,25
2017-05-29 08:45;111,35
2017-05-29 09:00;112,25
2017-05-29 09:15;120,8
2017-05-29 09:30;133,3
2017-05-29 09:45;132,15
2017-05-29 10:00;130,3
2017-05-29 10:15;127,65
2017-05-29 10:30;129,45
2017-05-29 10:45;132,75
2017-05-29 11:00;139,9
2017-05-29 11:15;137,15
2017-05-29 11:30;136,35
2017-05-29 11:45;139,45
2017-05-29 12:00;143,3
2017-05-29 12:15;144,3
2017-05-29 12:30;142,2
2017-05-29 12:45;143,5
2017-05-29 13:00;142,7
2017-05-29 13:15;144,95
2017-05-29 13:30;149,1
2017-05-29 13:45;152,9
2017-05-29 14:00;150,1
2017-05-29 14:15;145,6
2017-05-29 14:30;142,3
2017-05-29 14:45;144,3
2017-05-29 15:00;138,45
2017-05-29 15:15;132,85
2017-05-29 15:30;132
2017-05-29 15:45;137,05
2017-05-29 16:00;129,85
2017-05-29 16:15;129,8
2017-05-29 16:30;122,8
2017-05-29 16:45;127,15
2017-05-29 17:00;128,9
2017-05-29 17:15;125,75
2017-05-29 17:30;125,95
2017-05-29 17:45;124,25
2017-05-29 18:00;119,5
2017-05-29 18:15;116,8
2017-05-29 18:30;116,4
2017-05-29 18:45;114,6
2017-05-29 19:00;112,7
2017-05-29 19:15;105,65
2017-05-29 19:30;109,95
2017-05-29 19:45;110,3
2017-05-29 20:00;108,7
2017-05-29 20:15;105,2
2017-05-29 20:30;106,2
2017-05-29 20:45;101,1
2017-05-29 21:00;105,6
2017-05-29 21:15;102,2
2017-05-29 21:30;104,65
2017-05-29 21:45;100,25
2017-05-29 22:00;94,75
2017-05-29 22:15;93,3
2017-05-29 22:30;92,55
2017-05-29 22:45;90,45
2017-05-29 23:00;90,65
2017-05-29 23:15;90,75
2017-05-29 23:30;90,55
2017-05-29 23:45;86,3
2017-05-30 00:00;82,5
2017-05-30 00:15;87,75
2017-05-30 00:30;84,2
2017-05-30 00:45;85,9
2017-05-30 01:00;84,95
2017-05-30 01:15;83,3
2017-05-30 01:30;83,2
2017-05-30 01:45;82,4
2017-05-30 02:00;82,15
2017-05-30 02:15;81,35
2017-05-30 02:30;80,9
2017-05-30 02:45;80,55
2017-05-30 03:00;79,3
2017-05-30 03:15;80,2
2017-05-30 03:30;82,15
2017-05-30 03:45;79,45
2017-05-30 04:00;82
2017-05-30 04:15;79,95
2017-05-30 04:30;80,85
2017-05-30 04:45;80,1
2017-05-30 05:00;81,95
2017-05-30 05:15;83,5
2017-05-30 05:30;85,55
2017-05-30 05:45;89,5
2017-05-30 06:00;86,35
2017-05-30 06:15;87,25
2017-05-30 06:30;90,05
2017-05-30 06:45;90,45
2017-05-30 07:00;87,05
2017-05-30 07:15;86,95
2017-05-30 07:30;84,5
2017-05-30 07:45;92,4
2017-05-30 08:00;88,4
2017-05-30 08:15;90
2017-05-30 08:30;90,85
2017-05-30 08:45;103,75
2017-05-30 09:00;107,35
2017-05-30 09:15;111,75
2017-05-30 09:30;116,15
2017-05-30 09:45;122,55
2017-05-30 10:00;130,45
2017-05-30 10:15;138,3
2017-05-30 10:30;141,9
2017-05-30 10:45;148
2017-05-30 11:00;149,6
2017-05-30 11:15;148,1
2017-05-30 11:30;147,7
2017-05-30 11:45;145,8
2017-05-30 12:00;145,35
2017-05-30 12:15;151,45
2017-05-30 12:30;148
2017-05-30 12:45;151,5
2017-05-30 13:00;147,1
2017-05-30 13:15;155,8
2017-05-30 13:30;152,4
2017-05-30 13:45;153
2017-05-30 14:00;161,25
2017-05-30 14:15;148,25
2017-05-30 14:30;151,3
2017-05-30 14:45;145,7
2017-05-30 15:00;141,95
2017-05-30 15:15;140,4
2017-05-30 15:30;138,7
2017-05-30 15:45;136,4
2017-05-30 16:00;132,55
2017-05-30 16:15;124,4
2017-05-30 16:30;126,65
2017-05-30 16:45;124,8
2017-05-30 17:00;119,9
2017-05-30 17:15;123,9
2017-05-30 17:30;119,5
2017-05-30 17:45;122,4
2017-05-30 18:00;119,75
2017-05-30 18:15;115,4
2017-05-30 18:30;122,25
2017-05-30 18:45;115
2017-05-30 19:00;112,85
2017-05-30 19:15;113,1
2017-05-30 19:30;106,9
2017-05-30 19:45;106,6
2017-05-30 20:00;107,35
2017-05-30 20:15;98,65
2017-05-30 20:30;102,5
2017-05-30 20:45;111,35
2017-05-30 21:00;106,65
2017-05-30 21:15;101,4
2017-05-30 21:30;102,35
2017-05-30 21:45;103,15
2017-05-30 22:00;96,45
2017-05-30 22:15;94,2
2017-05-30 22:30;93,35
2017-05-30 22:45;94,05
2017-05-30 23:00;89,95
2017-05-30 23:15;89
2017-05-30 23:30;92,4
2017-05-30 23:45;91,3
2017-05-31 00:00;86,1
2017-05-31 00:15;85,4
2017-05-31 00:30;86,4
2017-05-31 00:45;84,3
2017-05-31 01:00;84,05
2017-05-31 01:15;81,15
2017-05-31 01:30;82,3
2017-05-31 01:45;81,85
2017-05-31 02:00;81,25
2017-05-31 02:15;81,3
2017-05-31 02:30;82,8
2017-05-31 02:45;79,85
2017-05-31 03:00;79,35
2017-05-31 03:15;81,4
2017-05-31 03:30;81,2
2017-05-31 03:45;77,8
2017-05-31 04:00;77,35
2017-05-31 04:15;76,75
2017-05-31 04:30;76,9
2017-05-31 04:45;76,25
2017-05-31 05:00;79,25
2017-05-31 05:15;82
2017-05-31 05:30;85,2
2017-05-31 05:45;89,05
2017-05-31 06:00;85,45
2017-05-31 06:15;83,6
2017-05-31 06:30;89,65
2017-05-31 06:45;83,75
2017-05-31 07:00;83,2
2017-05-31 07:15;89,8
2017-05-31 07:30;95,45
2017-05-31 07:45;100,55
2017-05-31 08:00;93,8
2017-05-31 08:15;95,1
2017-05-31 08:30;102,1
2017-05-31 08:45;112,45
2017-05-31 09:00;112,45
2017-05-31 09:15;121,8
2017-05-31 09:30;123,6
2017-05-31 09:45;120,85
2017-05-31 10:00;124
2017-05-31 10:15;128,7
2017-05-31 10:30;133,15
2017-05-31 10:45;128,35
2017-05-31 11:00;137,05
2017-05-31 11:15;145
2017-05-31 11:30;136,45
2017-05-31 11:45;137,35
2017-05-31 12:00;142,4
2017-05-31 12:15;145,55
2017-05-31 12:30;143,95
2017-05-31 12:45;149,85
2017-05-31 13:00;149,1
2017-05-31 13:15;153,55
2017-05-31 13:30;157,3
2017-05-31 13:45;160,95
2017-05-31 14:00;150,85
2017-05-31 14:15;147,6
2017-05-31 14:30;152,45
2017-05-31 14:45;147,25
2017-05-31 15:00;147
2017-05-31 15:15;151,6
2017-05-31 15:30;146,2
2017-05-31 15:45;143,5
2017-05-31 16:00;145,65
2017-05-31 16:15;140,75
2017-05-31 16:30;136,9
2017-05-31 16:45;136
2017-05-31 17:00;143,05
2017-05-31 17:15;141
2017-05-31 17:30;135,45
2017-05-31 17:45;135,15
2017-05-31 18:00;134,95
2017-05-31 18:15;127,25
2017-05-31 18:30;127,1
2017-05-31 18:45;123
2017-05-31 19:00;128,6
2017-05-31 19:15;117,85
2017-05-31 19:30;122
2017-05-31 19:45;121,9
2017-05-31 20:00;109,2
2017-05-31 20:15;108,95
2017-05-31 20:30;106,9
2017-05-31 20:45;107,85
2017-05-31 21:00;107,25
2017-05-31 21:15;104,25
2017-05-31 21:30;104,25
2017-05-31 21:45;100,15
2017-05-31 22:00;97
2017-05-31 22:15;96,7
2017-05-31 22:30;96,05
2017-05-31 22:45;93,7
2017-05-31 23:00;94,6
2017-05-31 23:15;92,5
2017-05-31 23:30;90,9
2017-05-31 23:45;90,95
2017-06-01 00:00;90,2
2017-06-01 00:15;88,9
2017-06-01 00:30;90,35
2017-06-01 00:45;89,2
2017-06-01 01:00;88,55
2017-06-01 01:15;86,65
2017-06-01 01:30;88,15
2017-06-01 01:45;90,1
2017-06-01 02:00;89,45
2017-06-01 02:15;87,15
2017-06-01 02:30;87,2
2017-06-01 02:45;88,7
2017-06-01 03:00;87,3
2017-06-01 03:15;87,1
2017-06-01 03:30;88,35
2017-06-01 03:45;86,45
2017-06-01 04:00;87,85
2017-06-01 04:15;87,15
2017-06-01 04:30;86,3
2017-06-01 04:45;86,7
2017-06-01 05:00;88,85
2017-06-01 05:15;93,15
2017-06-01 05:30;95,1
2017-06-01 05:45;98,15
2017-06-01 06:00;96,55
2017-06-01 06:15;94,6
2017-06-01 06:30;98,35
2017-06-01 06:45;94,3
2017-06-01 07:00;87,85
2017-06-01 07:15;88,95
2017-06-01 07:30;98
2017-06-01 07:45;101,75
2017-06-01 08:00;101,05
2017-06-01 08:15;101,4
2017-06-01 08:30;105,5
2017-06-01 08:45;112,7
2017-06-01 09:00;113,75
2017-06-01 09:15;124,8
2017-06-01 09:30;122,95
2017-06-01 09:45;120,8
2017-06-01 10:00;129
2017-06-01 10:15;134,5
2017-06-01 10:30;138,5
2017-06-01 10:45;146,2
2017-06-01 11:00;161,3
2017-06-01 11:15;157,3
2017-06-01 11:30;152,85
2017-06-01 11:45;154,6
2017-06-01 12:00;158,6
2017-06-01 12:15;160,5
2017-06-01 12:30;160,85
2017-06-01 12:45;167,15
2017-06-01 13:00;173,35
2017-06-01 13:15;176,7
2017-06-01 13:30;178,6
2017-06-01 13:45;173,15
2017-06-01 14:00;172,1
2017-06-01 14:15;165,35
2017-06-01 14:30;164,55
2017-06-01 14:45;163,2
2017-06-01 15:00;166,65
2017-06-01 15:15;167,55
2017-06-01 15:30;166,6
2017-06-01 15:45;169,8
2017-06-01 16:00;165
2017-06-01 16:15;163,8
2017-06-01 16:30;160,1
2017-06-01 16:45;160,45
2017-06-01 17:00;153,55
2017-06-01 17:15;147,55
2017-06-01 17:30;144,3
2017-06-01 17:45;139,1
2017-06-01 18:00;137,1
2017-06-01 18:15;137,8
2017-06-01 18:30;132,85
2017-06-01 18:45;132,85
2017-06-01 19:00;133,05
2017-06-01 19:15;122,75
2017-06-01 19:30;127,75
2017-06-01 19:45;121,2
2017-06-01 20:00;120,3
2017-06-01 20:15;117,5
2017-06-01 20:30;113,3
2017-06-01 20:45;112,05
2017-06-01 21:00;117,6
2017-06-01 21:15;111,05
2017-06-01 21:30;112,6
2017-06-01 21:45;109,45
2017-06-01 22:00;101,85
2017-06-01 22:15;99,7
2017-06-01 22:30;95,8
2017-06-01 22:45;96
2017-06-01 23:00;96,9
2017-06-01 23:15;91,95
2017-06-01 23:30;94,15
2017-06-01 23:45;90,4
2017-06-02 00:00;92,85
2017-06-02 00:15;93,5
2017-06-02 00:30;90,9
2017-06-02 00:45;89,95
2017-06-02 01:00;86,4
2017-06-02 01:15;86,1
2017-06-02 01:30;83,2
2017-06-02 01:45;83,3
2017-06-02 02:00;85,35
2017-06-02 02:15;83,45
2017-06-02 02:30;84
2017-06-02 02:45;84,6
2017-06-02 03:00;83,35
2017-06-02 03:15;83,6
2017-06-02 03:30;81,8
2017-06-02 03:45;82,4
2017-06-02 04:00;84,8
2017-06-02 04:15;83,35
2017-06-02 04:30;81,5
2017-06-02 04:45;82,1
2017-06-02 05:00;82,5
2017-06-02 05:15;86,8
2017-06-02 05:30;90,1
2017-06-02 05:45;96,35
2017-06-02 06:00;94,4
2017-06-02 06:15;91,55
2017-06-02 06:30;88,95
2017-06-02 06:45;98,3
2017-06-02 07:00;93,65
2017-06-02 07:15;91,2
2017-06-02 07:30;95,7
2017-06-02 07:45;99,65
2017-06-02 08:00;105,65
2017-06-02 08:15;116,3
2017-06-02 08:30;121,95
2017-06-02 08:45;126,2
2017-06-02 09:00;129,25
2017-06-02 09:15;131,75
2017-06-02 09:30;139,65
2017-06-02 09:45;131,15
2017-06-02 10:00;139,8
2017-06-02 10:15;143,85
2017-06-02 10:30;141,15
2017-06-02 10:45;150,05
2017-06-02 11:00;156,8
2017-06-02 11:15;173,4
2017-06-02 11:30;192,85
2017-06-02 11:45;227,3
2017-06-02 12:00;225,35
2017-06-02 12:15;190,15
2017-06-02 12:30;185,15
2017-06-02 12:45;189,7
2017-06-02 13:00;190,85
2017-06-02 13:15;182,05
2017-06-02 13:30;183,1
2017-06-02 13:45;193,95
2017-06-02 14:00;181,7
2017-06-02 14:15;187,1
2017-06-02 14:30;180,9
2017-06-02 14:45;176,3
2017-06-02 15:00;171,15
2017-06-02 15:15;167,35
2017-06-02 15:30;170,85
2017-06-02 15:45;168,15
2017-06-02 16:00;162
2017-06-02 16:15;162,6
2017-06-02 16:30;156,5
2017-06-02 16:45;153,65
2017-06-02 17:00;158,75
2017-06-02 17:15;152,25
2017-06-02 17:30;145,6
2017-06-02 17:45;157,2
2017-06-02 18:00;144,55
2017-06-02 18:15;139,1
2017-06-02 18:30;133,95
2017-06-02 18:45;128,2
2017-06-02 19:00;129,55
2017-06-02 19:15;122,1
2017-06-02 19:30;119,55
2017-06-02 19:45;118,35
2017-06-02 20:00;120,4
2017-06-02 20:15;113,8
2017-06-02 20:30;113,65
2017-06-02 20:45;118,7
2017-06-02 21:00;116,15
2017-06-02 21:15;113,45
2017-06-02 21:30;111,35
2017-06-02 21:45;113,55
2017-06-02 22:00;106,6
2017-06-02 22:15;103,9
2017-06-02 22:30;102,35
2017-06-02 22:45;102,45
2017-06-02 23:00;99,75
2017-06-02 23:15;99,35
2017-06-02 23:30;98,75
2017-06-02 23:45;97,75
2017-06-03 00:00;91,2
2017-06-03 00:15;93,7
2017-06-03 00:30;94,25
2017-06-03 00:45;95,15
2017-06-03 01:00;94,3
2017-06-03 01:15;92,5
2017-06-03 01:30;86,9
2017-06-03 01:45;85,5
2017-06-03 02:00;84,55
2017-06-03 02:15;79,1
2017-06-03 02:30;82,45
2017-06-03 02:45;80,4
2017-06-03 03:00;80,75
2017-06-03 03:15;79,55
2017-06-03 03:30;79,8
2017-06-03 03:45;78,6
2017-06-03 04:00;80,7
2017-06-03 04:15;80,5
2017-06-03 04:30;79,25
2017-06-03 04:45;79,95
2017-06-03 05:00;78,8
2017-06-03 05:15;78,05
2017-06-03 05:30;79,55
2017-06-03 05:45;79,2
2017-06-03 06:00;81,8
2017-06-03 06:15;80,85
2017-06-03 06:30;77,95
2017-06-03 06:45;74,6
2017-06-03 07:00;77
2017-06-03 07:15;80,2
2017-06-03 07:30;78,15
2017-06-03 07:45;74,85
2017-06-03 08:00;73,4
2017-06-03 08:15;76,5
2017-06-03 08:30;77,2
2017-06-03 08:45;76,95
2017-06-03 09:00;76,4
2017-06-03 09:15;79,3
2017-06-03 09:30;79,35
2017-06-03 09:45;80
2017-06-03 10:00;80,4
2017-06-03 10:15;79,1
2017-06-03 10:30;80,25
2017-06-03 10:45;83,45
2017-06-03 11:00;86,05
2017-06-03 11:15;85,05
2017-06-03 11:30;86,25
2017-06-03 11:45;85,95
2017-06-03 12:00;88,35
2017-06-03 12:15;86,6
2017-06-03 12:30;87,6
2017-06-03 12:45;90,15
2017-06-03 13:00;89,3
2017-06-03 13:15;89,35
2017-06-03 13:30;90,45
2017-06-03 13:45;94,4
2017-06-03 14:00;91,4
2017-06-03 14:15;89,5
2017-06-03 14:30;87,25
2017-06-03 14:45;85,3
2017-06-03 15:00;91,05
2017-06-03 15:15;89,25
2017-06-03 15:30;91,25
2017-06-03 15:45;88,6
2017-06-03 16:00;88,95
2017-06-03 16:15;90,55
2017-06-03 16:30;93,8
2017-06-03 16:45;91,1
2017-06-03 17:00;95,4
2017-06-03 17:15;90,9
2017-06-03 17:30;95,3
2017-06-03 17:45;95,7
2017-06-03 18:00;92,1
2017-06-03 18:15;93,55
2017-06-03 18:30;91,7
2017-06-03 18:45;91,7
2017-06-03 19:00;88,35
2017-06-03 19:15;88,95
2017-06-03 19:30;92,65
2017-06-03 19:45;89,1
2017-06-03 20:00;92,8
2017-06-03 20:15;92,75
2017-06-03 20:30;92,1
2017-06-03 20:45;95,95
2017-06-03 21:00;97,3
2017-06-03 21:15;99,45
2017-06-03 21:30;97,45
2017-06-03 21:45;95,55
2017-06-03 22:00;89
2017-06-03 22:15;89,45
2017-06-03 22:30;87,9
2017-06-03 22:45;87,7
2017-06-03 23:00;86,6
2017-06-03 23:15;83,9
2017-06-03 23:30;83,5
2017-06-03 23:45;82,9
2017-06-04 00:00;84,1
2017-06-04 00:15;82,2
2017-06-04 00:30;82,45
2017-06-04 00:45;82,8
2017-06-04 01:00;82
2017-06-04 01:15;82,85
2017-06-04 01:30;81,55
2017-06-04 01:45;81,7
2017-06-04 02:00;80,05
2017-06-04 02:15;80,45
2017-06-04 02:30;81,3
2017-06-04 02:45;80,85
2017-06-04 03:00;78
2017-06-04 03:15;81,05
2017-06-04 03:30;80,1
2017-06-04 03:45;76,95
2017-06-04 04:00;80,1
2017-06-04 04:15;77,5
2017-06-04 04:30;77,5
2017-06-04 04:45;78,75
2017-06-04 05:00;79,35
2017-06-04 05:15;83,55
2017-06-04 05:30;81,05
2017-06-04 05:45;88,15
2017-06-04 06:00;87,05
2017-06-04 06:15;82,75
2017-06-04 06:30;82,9
2017-06-04 06:45;80,95
2017-06-04 07:00;80,1
2017-06-04 07:15;78,85
2017-06-04 07:30;74,85
2017-06-04 07:45;76,05
2017-06-04 08:00;75,55
2017-06-04 08:15;74,7
2017-06-04 08:30;79,75
2017-06-04 08:45;79
2017-06-04 09:00;81,2
2017-06-04 09:15;78,05
2017-06-04 09:30;79,2
2017-06-04 09:45;77,6
2017-06-04 10:00;79,8
2017-06-04 10:15;83
2017-06-04 10:30;83,75
2017-06-04 10:45;84,75
2017-06-04 11:00;85,55
2017-06-04 11:15;86,1
2017-06-04 11:30;83,95
2017-06-04 11:45;86,95
2017-06-04 12:00;85,15
2017-06-04 12:15;86,85
2017-06-04 12:30;88,75
2017-06-04 12:45;89,25
2017-06-04 13:00;86,4
2017-06-04 13:15;86,3
2017-06-04 13:30;90,1
2017-06-04 13:45;93,15
2017-06-04 14:00;89,4
2017-06-04 14:15;84,4
2017-06-04 14:30;82,05
2017-06-04 14:45;86,95
2017-06-04 15:00;86,05
2017-06-04 15:15;87,25
2017-06-04 15:30;90
2017-06-04 15:45;84,2
2017-06-04 16:00;88,65
2017-06-04 16:15;84,35
2017-06-04 16:30;86,65
2017-06-04 16:45;91,25
2017-06-04 17:00;86
2017-06-04 17:15;85,45
2017-06-04 17:30;85,65
2017-06-04 17:45;88,9
2017-06-04 18:00;86,6
2017-06-04 18:15;88,3
2017-06-04 18:30;87,65
2017-06-04 18:45;87,5
2017-06-04 19:00;84,4
2017-06-04 19:15;82,75
2017-06-04 19:30;87,55
2017-06-04 19:45;85,45
2017-06-04 20:00;89,3
2017-06-04 20:15;87,65
2017-06-04 20:30;90,55
2017-06-04 20:45;93,25
2017-06-04 21:00;95,7
2017-06-04 21:15;91,25
2017-06-04 21:30;94,95
2017-06-04 21:45;93,35
2017-06-04 22:00;88,75
2017-06-04 22:15;87,25
2017-06-04 22:30;87,25
2017-06-04 22:45;88,25
2017-06-04 23:00;86,1
2017-06-04 23:15;84,25
2017-06-04 23:30;85,4
2017-06-04 23:45;80,85

